INTELSAT 39 (IS-39)

Last updated on Sat Oct 18 2025 00:02:55 GMT+0000 (Coordinated Universal Time)

1 44476U 19049B 25290.70974381 .00000024 00000+0 00000+0 0 9999 2 44476 0.0193 242.0751 0000287 138.0365 323.8123 1.00271415 22696
UTC large
Height (km)
Speed (km/s)
/
Latitude / Longitude
Inclination (degrees)
Orbital Period (minutes)
Azimuth
Elevation
Range (km)
Doppler Factor

Next 0 passes for location: London (51.5072 / 0.1276)

Sorry there are no passes over London.